owner,sensor,date,latitude,longitude,vertical_datum,sea_water_practical_salinity,qcFlag 
TABS,ioos:station:wmo:42049:1,2015-10-10T04:30:00Z,28.3507,-96.0058,2.0,32.5615,11111222 
TABS,ioos:station:wmo:42049:1,2015-10-10T05:00:00Z,28.3507,-96.0058,2.0,32.6331,11111222 
TABS,ioos:station:wmo:42049:1,2015-10-10T05:30:00Z,28.3507,-96.0058,2.0,32.6295,11111222 
TABS,ioos:station:wmo:42049:1,2015-10-10T06:00:00Z,28.3507,-96.0058,2.0,32.6221,11111222 
TABS,ioos:station:wmo:42049:1,2015-10-10T06:30:00Z,28.3507,-96.0058,2.0,32.6211,11111222 
TABS,ioos:station:wmo:42049:1,2015-10-10T07:00:00Z,28.3507,-96.0058,2.0,32.5197,11111222 
TABS,ioos:station:wmo:42049:1,2015-10-10T07:30:00Z,28.3507,-96.0058,2.0,32.3927,11111222 
TABS,ioos:station:wmo:42049:1,2015-10-10T08:00:00Z,28.3507,-96.0058,2.0,32.3048,11111222 
TABS,ioos:station:wmo:42049:1,2015-10-10T08:30:00Z,28.3507,-96.0058,2.0,32.2624,11111222 
TABS,ioos:station:wmo:42049:1,2015-10-10T09:00:00Z,28.3507,-96.0058,2.0,32.0711,11111222 
TABS,ioos:station:wmo:42049:1,2015-10-10T09:30:00Z,28.3507,-96.0058,2.0,31.9349,11111222 
TABS,ioos:station:wmo:42049:1,2015-10-10T10:00:00Z,28.3507,-96.0058,2.0,31.9057,11111222 
TABS,ioos:station:wmo:42049:1,2015-10-10T10:30:00Z,28.3507,-96.0058,2.0,31.8527,11111222 
TABS,ioos:station:wmo:42049:1,2015-10-10T11:00:00Z,28.3507,-96.0058,2.0,31.607,11111222 
TABS,ioos:station:wmo:42049:1,2015-10-10T11:30:00Z,28.3507,-96.0058,2.0,31.5625,11111222 
TABS,ioos:station:wmo:42049:1,2015-10-10T12:00:00Z,28.3507,-96.0058,2.0,31.4704,11111222 
TABS,ioos:station:wmo:42049:1,2015-10-10T12:30:00Z,28.3507,-96.0058,2.0,31.4659,11111222 
TABS,ioos:station:wmo:42049:1,2015-10-10T13:00:00Z,28.3507,-96.0058,2.0,31.4635,11111222 
TABS,ioos:station:wmo:42049:1,2015-10-10T13:30:00Z,28.3507,-96.0058,2.0,31.5636,11111222 
TABS,ioos:station:wmo:42049:1,2015-10-10T14:00:00Z,28.3507,-96.0058,2.0,31.6504,11111222 
TABS,ioos:station:wmo:42049:1,2015-10-10T14:30:00Z,28.3507,-96.0058,2.0,31.8043,11111222 
TABS,ioos:station:wmo:42049:1,2015-10-10T15:00:00Z,28.3507,-96.0058,2.0,31.8634,11111222 
TABS,ioos:station:wmo:42049:1,2015-10-10T15:30:00Z,28.3507,-96.0058,2.0,31.8666,11111222 
TABS,ioos:station:wmo:42049:1,2015-10-10T16:00:00Z,28.3507,-96.0058,2.0,32.087,11111222 
TABS,ioos:station:wmo:42049:1,2015-10-10T16:30:00Z,28.3507,-96.0058,2.0,32.5819,11111222 
TABS,ioos:station:wmo:42049:1,2015-10-10T17:00:00Z,28.3507,-96.0058,2.0,33.0477,11111222 
TABS,ioos:station:wmo:42049:1,2015-10-10T17:30:00Z,28.3507,-96.0058,2.0,33.396,11111222 
TABS,ioos:station:wmo:42049:1,2015-10-10T18:00:00Z,28.3507,-96.0058,2.0,33.6369,11111222 
TABS,ioos:station:wmo:42049:1,2015-10-10T18:30:00Z,28.3507,-96.0058,2.0,33.7896,11111222 
TABS,ioos:station:wmo:42049:1,2015-10-10T19:00:00Z,28.3507,-96.0058,2.0,33.9358,11111222 
TABS,ioos:station:wmo:42049:1,2015-10-10T19:30:00Z,28.3507,-96.0058,2.0,34.031,11111222 
TABS,ioos:station:wmo:42049:1,2015-10-10T20:00:00Z,28.3507,-96.0058,2.0,34.0989,11111222 
TABS,ioos:station:wmo:42049:1,2015-10-10T20:30:00Z,28.3507,-96.0058,2.0,34.1929,11111222 
TABS,ioos:station:wmo:42049:1,2015-10-10T21:00:00Z,28.3507,-96.0058,2.0,34.2403,11111222 
TABS,ioos:station:wmo:42049:1,2015-10-10T21:30:00Z,28.3507,-96.0058,2.0,34.2886,11111222 
TABS,ioos:station:wmo:42049:1,2015-10-10T22:00:00Z,28.3507,-96.0058,2.0,34.3637,11111222 
TABS,ioos:station:wmo:42049:1,2015-10-10T22:30:00Z,28.3507,-96.0058,2.0,34.3617,11111222 
TABS,ioos:station:wmo:42049:1,2015-10-10T23:00:00Z,28.3507,-96.0058,2.0,34.3565,11111222 
TABS,ioos:station:wmo:42049:1,2015-10-10T23:30:00Z,28.3507,-96.0058,2.0,34.3557,11111222 
TABS,ioos:station:wmo:42049:1,2015-10-11T00:00:00Z,28.3507,-96.0058,2.0,34.3313,11111222 
TABS,ioos:station:wmo:42049:1,2015-10-11T00:30:00Z,28.3507,-96.0058,2.0,34.3205,11111222 
TABS,ioos:station:wmo:42049:1,2015-10-11T01:00:00Z,28.3507,-96.0058,2.0,34.269,11111222 
TABS,ioos:station:wmo:42049:1,2015-10-11T01:30:00Z,28.3507,-96.0058,2.0,34.2267,11111222 
TABS,ioos:station:wmo:42049:1,2015-10-11T02:00:00Z,28.3507,-96.0058,2.0,34.2091,11111222 
TABS,ioos:station:wmo:42049:1,2015-10-11T02:30:00Z,28.3507,-96.0058,2.0,34.196,11111222 
TABS,ioos:station:wmo:42049:1,2015-10-11T03:00:00Z,28.3507,-96.0058,2.0,34.1912,11111222 
TABS,ioos:station:wmo:42049:1,2015-10-11T03:30:00Z,28.3507,-96.0058,2.0,34.1698,11111222 
TABS,ioos:station:wmo:42049:1,2015-10-11T04:00:00Z,28.3507,-96.0058,2.0,34.0751,11111222 
TABS,ioos:station:wmo:42049:1,2015-10-11T04:30:00Z,28.3507,-96.0058,2.0,33.8935,11111222 
TABS,ioos:station:wmo:42049:1,2015-10-11T05:00:00Z,28.3507,-96.0058,2.0,33.5678,11111222 
TABS,ioos:station:wmo:42049:1,2015-10-11T05:30:00Z,28.3507,-96.0058,2.0,33.0555,11111222 
TABS,ioos:station:wmo:42049:1,2015-10-11T06:00:00Z,28.3507,-96.0058,2.0,33.4762,11111222 
TABS,ioos:station:wmo:42049:1,2015-10-11T06:30:00Z,28.3507,-96.0058,2.0,33.7073,11111222 
TABS,ioos:station:wmo:42049:1,2015-10-11T07:00:00Z,28.3507,-96.0058,2.0,33.6531,11111222 
TABS,ioos:station:wmo:42049:1,2015-10-11T07:30:00Z,28.3507,-96.0058,2.0,33.6786,11111222 
TABS,ioos:station:wmo:42049:1,2015-10-11T08:00:00Z,28.3507,-96.0058,2.0,33.3925,11111222 
TABS,ioos:station:wmo:42049:1,2015-10-11T08:30:00Z,28.3507,-96.0058,2.0,33.744,11111222 
TABS,ioos:station:wmo:42049:1,2015-10-11T09:00:00Z,28.3507,-96.0058,2.0,33.82,11111222 
TABS,ioos:station:wmo:42049:1,2015-10-11T09:30:00Z,28.3507,-96.0058,2.0,33.8669,11111222 
TABS,ioos:station:wmo:42049:1,2015-10-11T10:00:00Z,28.3507,-96.0058,2.0,33.9249,11111222 
TABS,ioos:station:wmo:42049:1,2015-10-11T10:30:00Z,28.3507,-96.0058,2.0,33.9409,11111222 
TABS,ioos:station:wmo:42049:1,2015-10-11T11:00:00Z,28.3507,-96.0058,2.0,33.9281,11111222 
TABS,ioos:station:wmo:42049:1,2015-10-11T11:30:00Z,28.3507,-96.0058,2.0,33.9801,11111222 
TABS,ioos:station:wmo:42049:1,2015-10-11T12:00:00Z,28.3507,-96.0058,2.0,34.0649,11111222 
TABS,ioos:station:wmo:42049:1,2015-10-11T12:30:00Z,28.3507,-96.0058,2.0,34.0838,11111222 
TABS,ioos:station:wmo:42049:1,2015-10-11T13:00:00Z,28.3507,-96.0058,2.0,33.9678,11111222 
TABS,ioos:station:wmo:42049:1,2015-10-11T13:30:00Z,28.3507,-96.0058,2.0,34.1402,11111222 
TABS,ioos:station:wmo:42049:1,2015-10-11T14:00:00Z,28.3507,-96.0058,2.0,34.1436,11111222 
TABS,ioos:station:wmo:42049:1,2015-10-11T14:30:00Z,28.3507,-96.0058,2.0,34.0665,11111222 
TABS,ioos:station:wmo:42049:1,2015-10-11T15:00:00Z,28.3507,-96.0058,2.0,34.0984,11111222 
TABS,ioos:station:wmo:42049:1,2015-10-11T15:30:00Z,28.3507,-96.0058,2.0,34.1737,11111222 
TABS,ioos:station:wmo:42049:1,2015-10-11T16:00:00Z,28.3507,-96.0058,2.0,34.2038,11111222 
TABS,ioos:station:wmo:42049:1,2015-10-11T16:30:00Z,28.3507,-96.0058,2.0,34.1188,11111222 
TABS,ioos:station:wmo:42049:1,2015-10-11T17:00:00Z,28.3507,-96.0058,2.0,34.1748,11111222 
TABS,ioos:station:wmo:42049:1,2015-10-11T17:30:00Z,28.3507,-96.0058,2.0,34.2481,11111222 
TABS,ioos:station:wmo:42049:1,2015-10-11T18:00:00Z,28.3507,-96.0058,2.0,34.2232,11111222 
TABS,ioos:station:wmo:42049:1,2015-10-11T18:30:00Z,28.3507,-96.0058,2.0,34.2887,11111222 
TABS,ioos:station:wmo:42049:1,2015-10-11T19:00:00Z,28.3507,-96.0058,2.0,34.299,11111222 
TABS,ioos:station:wmo:42049:1,2015-10-11T19:30:00Z,28.3507,-96.0058,2.0,34.3121,11111222 
TABS,ioos:station:wmo:42049:1,2015-10-11T20:00:00Z,28.3507,-96.0058,2.0,34.3293,11111222 
TABS,ioos:station:wmo:42049:1,2015-10-11T20:30:00Z,28.3507,-96.0058,2.0,34.2993,11111222 
TABS,ioos:station:wmo:42049:1,2015-10-11T21:00:00Z,28.3507,-96.0058,2.0,34.2482,11111222 
TABS,ioos:station:wmo:42049:1,2015-10-11T21:30:00Z,28.3507,-96.0058,2.0,34.2489,11111222 
TABS,ioos:station:wmo:42049:1,2015-10-11T22:00:00Z,28.3507,-96.0058,2.0,34.264,11111222 
TABS,ioos:station:wmo:42049:1,2015-10-11T22:30:00Z,28.3507,-96.0058,2.0,34.3054,11111222 
TABS,ioos:station:wmo:42049:1,2015-10-11T23:00:00Z,28.3507,-96.0058,2.0,34.3203,11111222 
TABS,ioos:station:wmo:42049:1,2015-10-11T23:30:00Z,28.3507,-96.0058,2.0,34.3214,11111222 
TABS,ioos:station:wmo:42049:1,2015-10-12T00:00:00Z,28.3507,-96.0058,2.0,34.3404,11111222 
TABS,ioos:station:wmo:42049:1,2015-10-12T00:30:00Z,28.3507,-96.0058,2.0,34.3629,11111222 
TABS,ioos:station:wmo:42049:1,2015-10-12T01:00:00Z,28.3507,-96.0058,2.0,34.3909,11111222 
TABS,ioos:station:wmo:42049:1,2015-10-12T01:30:00Z,28.3507,-96.0058,2.0,34.3982,11111222 
TABS,ioos:station:wmo:42049:1,2015-10-12T02:00:00Z,28.3507,-96.0058,2.0,34.4325,11111222 
TABS,ioos:station:wmo:42049:1,2015-10-12T02:30:00Z,28.3507,-96.0058,2.0,34.4596,11111222 
TABS,ioos:station:wmo:42049:1,2015-10-12T03:00:00Z,28.3507,-96.0058,2.0,34.4704,11111222 
TABS,ioos:station:wmo:42049:1,2015-10-12T03:30:00Z,28.3507,-96.0058,2.0,34.4736,11111222 
TABS,ioos:station:wmo:42049:1,2015-10-12T04:00:00Z,28.3507,-96.0058,2.0,34.4778,11111222 
TABS,ioos:station:wmo:42049:1,2015-10-12T04:30:00Z,28.3507,-96.0058,2.0,34.4807,11111222 
TABS,ioos:station:wmo:42049:1,2015-10-12T05:00:00Z,28.3507,-96.0058,2.0,34.4833,11111222 
TABS,ioos:station:wmo:42049:1,2015-10-12T05:30:00Z,28.3507,-96.0058,2.0,34.4831,11111222 
TABS,ioos:station:wmo:42049:1,2015-10-12T06:00:00Z,28.3507,-96.0058,2.0,34.4861,11111222 
TABS,ioos:station:wmo:42049:1,2015-10-12T06:30:00Z,28.3507,-96.0058,2.0,34.4882,11111222 
TABS,ioos:station:wmo:42049:1,2015-10-12T07:00:00Z,28.3507,-96.0058,2.0,34.4924,11111222 
TABS,ioos:station:wmo:42049:1,2015-10-12T07:30:00Z,28.3507,-96.0058,2.0,34.4986,11111222 
TABS,ioos:station:wmo:42049:1,2015-10-12T08:00:00Z,28.3507,-96.0058,2.0,34.499,11111222 
TABS,ioos:station:wmo:42049:1,2015-10-12T08:30:00Z,28.3507,-96.0058,2.0,34.5013,11111222 
TABS,ioos:station:wmo:42049:1,2015-10-12T09:00:00Z,28.3507,-96.0058,2.0,34.5095,11111222 
TABS,ioos:station:wmo:42049:1,2015-10-12T09:30:00Z,28.3507,-96.0058,2.0,34.5086,11111222 
TABS,ioos:station:wmo:42049:1,2015-10-12T10:00:00Z,28.3507,-96.0058,2.0,34.0874,11111222 
TABS,ioos:station:wmo:42049:1,2015-10-12T10:30:00Z,28.3507,-96.0058,2.0,34.0409,11111222 
TABS,ioos:station:wmo:42049:1,2015-10-12T11:00:00Z,28.3507,-96.0058,2.0,34.0763,11111222 
TABS,ioos:station:wmo:42049:1,2015-10-12T11:30:00Z,28.3507,-96.0058,2.0,34.0472,11111222 
TABS,ioos:station:wmo:42049:1,2015-10-12T12:00:00Z,28.3507,-96.0058,2.0,34.015,11111222 
TABS,ioos:station:wmo:42049:1,2015-10-12T12:30:00Z,28.3507,-96.0058,2.0,34.0744,11111222 
TABS,ioos:station:wmo:42049:1,2015-10-12T13:00:00Z,28.3507,-96.0058,2.0,34.0098,11111222 
TABS,ioos:station:wmo:42049:1,2015-10-12T13:30:00Z,28.3507,-96.0058,2.0,33.9954,11111222 
TABS,ioos:station:wmo:42049:1,2015-10-12T14:00:00Z,28.3507,-96.0058,2.0,34.0646,11111222 
TABS,ioos:station:wmo:42049:1,2015-10-12T14:30:00Z,28.3507,-96.0058,2.0,34.0738,11111222 
TABS,ioos:station:wmo:42049:1,2015-10-12T15:00:00Z,28.3507,-96.0058,2.0,34.083,11111222 
TABS,ioos:station:wmo:42049:1,2015-10-12T15:30:00Z,28.3507,-96.0058,2.0,34.0806,11111222 
TABS,ioos:station:wmo:42049:1,2015-10-12T16:00:00Z,28.3507,-96.0058,2.0,34.0672,11111222 
TABS,ioos:station:wmo:42049:1,2015-10-12T16:30:00Z,28.3507,-96.0058,2.0,34.0473,11111222 
TABS,ioos:station:wmo:42049:1,2015-10-12T17:00:00Z,28.3507,-96.0058,2.0,34.0699,11111222 
TABS,ioos:station:wmo:42049:1,2015-10-12T17:30:00Z,28.3507,-96.0058,2.0,34.0707,11111222 
TABS,ioos:station:wmo:42049:1,2015-10-12T18:00:00Z,28.3507,-96.0058,2.0,34.082,11111222 
TABS,ioos:station:wmo:42049:1,2015-10-12T18:30:00Z,28.3507,-96.0058,2.0,34.074,11111222 
TABS,ioos:station:wmo:42049:1,2015-10-12T19:00:00Z,28.3507,-96.0058,2.0,34.076,11111222 
TABS,ioos:station:wmo:42049:1,2015-10-12T19:30:00Z,28.3507,-96.0058,2.0,33.4277,11111222 
TABS,ioos:station:wmo:42049:1,2015-10-12T20:00:00Z,28.3507,-96.0058,2.0,33.4119,11111222 
TABS,ioos:station:wmo:42049:1,2015-10-12T20:30:00Z,28.3507,-96.0058,2.0,33.3121,11111222 
TABS,ioos:station:wmo:42049:1,2015-10-12T21:00:00Z,28.3507,-96.0058,2.0,33.3267,11111222 
TABS,ioos:station:wmo:42049:1,2015-10-12T21:30:00Z,28.3507,-96.0058,2.0,33.3623,11111222 
TABS,ioos:station:wmo:42049:1,2015-10-12T22:00:00Z,28.3507,-96.0058,2.0,33.3935,11111222 
TABS,ioos:station:wmo:42049:1,2015-10-12T22:30:00Z,28.3507,-96.0058,2.0,33.3835,11111222 
TABS,ioos:station:wmo:42049:1,2015-10-12T23:00:00Z,28.3507,-96.0058,2.0,33.3382,11111222 
TABS,ioos:station:wmo:42049:1,2015-10-12T23:30:00Z,28.3507,-96.0058,2.0,33.2059,11111222 
TABS,ioos:station:wmo:42049:1,2015-10-13T00:00:00Z,28.3507,-96.0058,2.0,33.078,11111222 
TABS,ioos:station:wmo:42049:1,2015-10-13T00:30:00Z,28.3507,-96.0058,2.0,32.9013,11111222 
TABS,ioos:station:wmo:42049:1,2015-10-13T01:00:00Z,28.3507,-96.0058,2.0,32.8315,11111222 
TABS,ioos:station:wmo:42049:1,2015-10-13T01:30:00Z,28.3507,-96.0058,2.0,32.4275,11111222 
TABS,ioos:station:wmo:42049:1,2015-10-13T02:00:00Z,28.3507,-96.0058,2.0,32.4108,11111222 
TABS,ioos:station:wmo:42049:1,2015-10-13T02:30:00Z,28.3507,-96.0058,2.0,32.4138,11111222 
TABS,ioos:station:wmo:42049:1,2015-10-13T03:00:00Z,28.3507,-96.0058,2.0,32.4554,11111222 
TABS,ioos:station:wmo:42049:1,2015-10-13T03:30:00Z,28.3507,-96.0058,2.0,32.454,11111222 
TABS,ioos:station:wmo:42049:1,2015-10-13T04:00:00Z,28.3507,-96.0058,2.0,32.4773,11111222 
TABS,ioos:station:wmo:42049:1,2015-10-13T04:30:00Z,28.3507,-96.0058,2.0,32.4869,11111222 
TABS,ioos:station:wmo:42049:1,2015-10-13T05:00:00Z,28.3507,-96.0058,2.0,32.5504,11111222 
TABS,ioos:station:wmo:42049:1,2015-10-13T05:30:00Z,28.3507,-96.0058,2.0,32.6859,11111222 
TABS,ioos:station:wmo:42049:1,2015-10-13T06:00:00Z,28.3507,-96.0058,2.0,32.7911,11111222 
TABS,ioos:station:wmo:42049:1,2015-10-13T06:30:00Z,28.3507,-96.0058,2.0,32.77,11111222 
TABS,ioos:station:wmo:42049:1,2015-10-13T07:00:00Z,28.3507,-96.0058,2.0,32.7018,11111222 
TABS,ioos:station:wmo:42049:1,2015-10-13T07:30:00Z,28.3507,-96.0058,2.0,32.6861,11111222 
TABS,ioos:station:wmo:42049:1,2015-10-13T08:00:00Z,28.3507,-96.0058,2.0,32.6716,11111222 
TABS,ioos:station:wmo:42049:1,2015-10-13T08:30:00Z,28.3507,-96.0058,2.0,32.6133,11111222 
TABS,ioos:station:wmo:42049:1,2015-10-13T09:00:00Z,28.3507,-96.0058,2.0,32.5758,11111222 
TABS,ioos:station:wmo:42049:1,2015-10-13T09:30:00Z,28.3507,-96.0058,2.0,32.5248,11111222 
TABS,ioos:station:wmo:42049:1,2015-10-13T10:00:00Z,28.3507,-96.0058,2.0,32.4611,11111222 
TABS,ioos:station:wmo:42049:1,2015-10-13T10:30:00Z,28.3507,-96.0058,2.0,32.4376,11111222 
TABS,ioos:station:wmo:42049:1,2015-10-13T11:00:00Z,28.3507,-96.0058,2.0,32.3766,11111222 
TABS,ioos:station:wmo:42049:1,2015-10-13T11:30:00Z,28.3507,-96.0058,2.0,30.8565,11111222 
TABS,ioos:station:wmo:42049:1,2015-10-13T12:00:00Z,28.3507,-96.0058,2.0,30.4647,11111222 
TABS,ioos:station:wmo:42049:1,2015-10-13T12:30:00Z,28.3507,-96.0058,2.0,30.3179,11111222 
TABS,ioos:station:wmo:42049:1,2015-10-13T13:00:00Z,28.3507,-96.0058,2.0,30.1177,11111222 
TABS,ioos:station:wmo:42049:1,2015-10-13T13:30:00Z,28.3507,-96.0058,2.0,29.9572,11111222 
TABS,ioos:station:wmo:42049:1,2015-10-13T14:00:00Z,28.3507,-96.0058,2.0,29.901,11111222 
TABS,ioos:station:wmo:42049:1,2015-10-13T14:30:00Z,28.3507,-96.0058,2.0,29.8222,11111222 
TABS,ioos:station:wmo:42049:1,2015-10-13T15:00:00Z,28.3507,-96.0058,2.0,29.6797,11111222 
TABS,ioos:station:wmo:42049:1,2015-10-13T15:30:00Z,28.3507,-96.0058,2.0,29.2349,11111222 
TABS,ioos:station:wmo:42049:1,2015-10-13T16:00:00Z,28.3507,-96.0058,2.0,29.1489,11111222 
TABS,ioos:station:wmo:42049:1,2015-10-13T16:30:00Z,28.3507,-96.0058,2.0,28.9805,11111222 
TABS,ioos:station:wmo:42049:1,2015-10-13T17:00:00Z,28.3507,-96.0058,2.0,28.7362,11111222 
TABS,ioos:station:wmo:42049:1,2015-10-13T17:30:00Z,28.3507,-96.0058,2.0,28.5597,11111222 
TABS,ioos:station:wmo:42049:1,2015-10-13T18:00:00Z,28.3507,-96.0058,2.0,28.4224,11111222 
TABS,ioos:station:wmo:42049:1,2015-10-13T18:30:00Z,28.3507,-96.0058,2.0,28.3477,11111222 
TABS,ioos:station:wmo:42049:1,2015-10-13T19:00:00Z,28.3507,-96.0058,2.0,28.2795,11111222 
TABS,ioos:station:wmo:42049:1,2015-10-13T19:30:00Z,28.3507,-96.0058,2.0,28.2273,11111222 
TABS,ioos:station:wmo:42049:1,2015-10-13T20:00:00Z,28.3507,-96.0058,2.0,28.2046,11111222 
TABS,ioos:station:wmo:42049:1,2015-10-13T20:30:00Z,28.3507,-96.0058,2.0,28.1559,11111222 
TABS,ioos:station:wmo:42049:1,2015-10-13T21:00:00Z,28.3507,-96.0058,2.0,28.1264,11111222 
TABS,ioos:station:wmo:42049:1,2015-10-13T21:30:00Z,28.3507,-96.0058,2.0,28.0812,11111222 
TABS,ioos:station:wmo:42049:1,2015-10-13T22:00:00Z,28.3507,-96.0058,2.0,28.0803,11111222 
TABS,ioos:station:wmo:42049:1,2015-10-13T22:30:00Z,28.3507,-96.0058,2.0,28.0566,11111222 
TABS,ioos:station:wmo:42049:1,2015-10-13T23:00:00Z,28.3507,-96.0058,2.0,28.0285,11111222 
TABS,ioos:station:wmo:42049:1,2015-10-13T23:30:00Z,28.3507,-96.0058,2.0,28.018,11111222 
TABS,ioos:station:wmo:42049:1,2015-10-14T00:00:00Z,28.3507,-96.0058,2.0,28.0155,11111222 
TABS,ioos:station:wmo:42049:1,2015-10-14T00:30:00Z,28.3507,-96.0058,2.0,28.0018,11111222 
TABS,ioos:station:wmo:42049:1,2015-10-14T01:00:00Z,28.3507,-96.0058,2.0,27.9914,11111222 
TABS,ioos:station:wmo:42049:1,2015-10-14T01:30:00Z,28.3507,-96.0058,2.0,27.9861,11111222 
TABS,ioos:station:wmo:42049:1,2015-10-14T02:00:00Z,28.3507,-96.0058,2.0,27.9772,11111222 
TABS,ioos:station:wmo:42049:1,2015-10-14T02:30:00Z,28.3507,-96.0058,2.0,27.9781,11111222 
TABS,ioos:station:wmo:42049:1,2015-10-14T03:00:00Z,28.3507,-96.0058,2.0,27.9749,11111222 
TABS,ioos:station:wmo:42049:1,2015-10-14T03:30:00Z,28.3507,-96.0058,2.0,27.9706,11111222 
TABS,ioos:station:wmo:42049:1,2015-10-14T04:00:00Z,28.3507,-96.0058,2.0,27.9668,11111222 
TABS,ioos:station:wmo:42049:1,2015-10-14T04:30:00Z,28.3507,-96.0058,2.0,27.9617,11111222 
TABS,ioos:station:wmo:42049:1,2015-10-14T05:00:00Z,28.3507,-96.0058,2.0,27.9252,11111222 
TABS,ioos:station:wmo:42049:1,2015-10-14T05:30:00Z,28.3507,-96.0058,2.0,27.8576,11111222 
TABS,ioos:station:wmo:42049:1,2015-10-14T06:00:00Z,28.3507,-96.0058,2.0,27.7942,11111222 
TABS,ioos:station:wmo:42049:1,2015-10-14T06:30:00Z,28.3507,-96.0058,2.0,27.7391,11111222 
TABS,ioos:station:wmo:42049:1,2015-10-14T07:00:00Z,28.3507,-96.0058,2.0,27.7065,11111222 
TABS,ioos:station:wmo:42049:1,2015-10-14T07:30:00Z,28.3507,-96.0058,2.0,27.6994,11111222 
TABS,ioos:station:wmo:42049:1,2015-10-14T08:00:00Z,28.3507,-96.0058,2.0,27.6688,11111222 
TABS,ioos:station:wmo:42049:1,2015-10-14T08:30:00Z,28.3507,-96.0058,2.0,27.6644,11111222 
TABS,ioos:station:wmo:42049:1,2015-10-14T09:00:00Z,28.3507,-96.0058,2.0,27.6376,11111222 
TABS,ioos:station:wmo:42049:1,2015-10-14T09:30:00Z,28.3507,-96.0058,2.0,27.6294,11111222 
TABS,ioos:station:wmo:42049:1,2015-10-14T10:00:00Z,28.3507,-96.0058,2.0,27.576,11111222 
TABS,ioos:station:wmo:42049:1,2015-10-14T10:30:00Z,28.3507,-96.0058,2.0,27.5726,11111222 
TABS,ioos:station:wmo:42049:1,2015-10-14T11:00:00Z,28.3507,-96.0058,2.0,27.5606,11111222 
TABS,ioos:station:wmo:42049:1,2015-10-14T11:30:00Z,28.3507,-96.0058,2.0,27.558,11111222 
TABS,ioos:station:wmo:42049:1,2015-10-14T12:00:00Z,28.3507,-96.0058,2.0,27.5621,11111222 
TABS,ioos:station:wmo:42049:1,2015-10-14T12:30:00Z,28.3507,-96.0058,2.0,27.5725,11111222 
TABS,ioos:station:wmo:42049:1,2015-10-14T13:00:00Z,28.3507,-96.0058,2.0,27.5786,11111222 
TABS,ioos:station:wmo:42049:1,2015-10-14T13:30:00Z,28.3507,-96.0058,2.0,27.5775,11111222 
TABS,ioos:station:wmo:42049:1,2015-10-14T14:00:00Z,28.3507,-96.0058,2.0,27.5861,11111222 
TABS,ioos:station:wmo:42049:1,2015-10-14T14:30:00Z,28.3507,-96.0058,2.0,27.595,11111222 
TABS,ioos:station:wmo:42049:1,2015-10-14T15:00:00Z,28.3507,-96.0058,2.0,27.6042,11111222 
TABS,ioos:station:wmo:42049:1,2015-10-14T15:30:00Z,28.3507,-96.0058,2.0,27.6265,11111222 
TABS,ioos:station:wmo:42049:1,2015-10-14T16:00:00Z,28.3507,-96.0058,2.0,27.6277,11111222 
TABS,ioos:station:wmo:42049:1,2015-10-14T16:30:00Z,28.3507,-96.0058,2.0,27.6333,11111222 
TABS,ioos:station:wmo:42049:1,2015-10-14T17:00:00Z,28.3507,-96.0058,2.0,27.6458,11111222 
TABS,ioos:station:wmo:42049:1,2015-10-14T17:30:00Z,28.3507,-96.0058,2.0,27.6483,11111222 
TABS,ioos:station:wmo:42049:1,2015-10-14T18:00:00Z,28.3507,-96.0058,2.0,27.6555,11111222 
TABS,ioos:station:wmo:42049:1,2015-10-14T18:30:00Z,28.3507,-96.0058,2.0,27.6621,11111222 
TABS,ioos:station:wmo:42049:1,2015-10-14T19:00:00Z,28.3507,-96.0058,2.0,27.7022,11111222 
TABS,ioos:station:wmo:42049:1,2015-10-14T19:30:00Z,28.3507,-96.0058,2.0,27.7131,11111222 
TABS,ioos:station:wmo:42049:1,2015-10-14T20:00:00Z,28.3507,-96.0058,2.0,27.7573,11111222 
TABS,ioos:station:wmo:42049:1,2015-10-14T20:30:00Z,28.3507,-96.0058,2.0,27.7631,11111222 
TABS,ioos:station:wmo:42049:1,2015-10-14T21:00:00Z,28.3507,-96.0058,2.0,27.7656,11111222 
TABS,ioos:station:wmo:42049:1,2015-10-14T21:30:00Z,28.3507,-96.0058,2.0,27.794,11111222 
TABS,ioos:station:wmo:42049:1,2015-10-14T22:00:00Z,28.3507,-96.0058,2.0,27.8218,11111222 
TABS,ioos:station:wmo:42049:1,2015-10-14T22:30:00Z,28.3507,-96.0058,2.0,27.8667,11111222 
TABS,ioos:station:wmo:42049:1,2015-10-14T23:00:00Z,28.3507,-96.0058,2.0,27.9287,11111222 
TABS,ioos:station:wmo:42049:1,2015-10-14T23:30:00Z,28.3507,-96.0058,2.0,27.9786,11111222 
TABS,ioos:station:wmo:42049:1,2015-10-15T00:00:00Z,28.3507,-96.0058,2.0,28.1037,11111222 
TABS,ioos:station:wmo:42049:1,2015-10-15T00:30:00Z,28.3507,-96.0058,2.0,28.1977,11111222 
TABS,ioos:station:wmo:42049:1,2015-10-15T01:00:00Z,28.3507,-96.0058,2.0,28.2637,11111222 
TABS,ioos:station:wmo:42049:1,2015-10-15T01:30:00Z,28.3507,-96.0058,2.0,28.3492,11111222 
TABS,ioos:station:wmo:42049:1,2015-10-15T02:00:00Z,28.3507,-96.0058,2.0,28.5039,11111222 
TABS,ioos:station:wmo:42049:1,2015-10-15T02:30:00Z,28.3507,-96.0058,2.0,28.7389,11111222 
TABS,ioos:station:wmo:42049:1,2015-10-15T03:00:00Z,28.3507,-96.0058,2.0,28.9473,11111222 
TABS,ioos:station:wmo:42049:1,2015-10-15T03:30:00Z,28.3507,-96.0058,2.0,29.2122,11111222 
TABS,ioos:station:wmo:42049:1,2015-10-15T04:00:00Z,28.3507,-96.0058,2.0,29.3332,11111222 
TABS,ioos:station:wmo:42049:1,2015-10-15T04:30:00Z,28.3507,-96.0058,2.0,29.4008,11111222 
TABS,ioos:station:wmo:42049:1,2015-10-15T05:00:00Z,28.3507,-96.0058,2.0,29.5933,11111222 
TABS,ioos:station:wmo:42049:1,2015-10-15T05:30:00Z,28.3507,-96.0058,2.0,29.6995,11111222 
TABS,ioos:station:wmo:42049:1,2015-10-15T06:00:00Z,28.3507,-96.0058,2.0,29.8602,11111222 
TABS,ioos:station:wmo:42049:1,2015-10-15T06:30:00Z,28.3507,-96.0058,2.0,29.9466,11111222 
TABS,ioos:station:wmo:42049:1,2015-10-15T07:00:00Z,28.3507,-96.0058,2.0,29.9609,11111222 
TABS,ioos:station:wmo:42049:1,2015-10-15T07:30:00Z,28.3507,-96.0058,2.0,29.9965,11111222 
TABS,ioos:station:wmo:42049:1,2015-10-15T08:00:00Z,28.3507,-96.0058,2.0,30.0341,11111222 
TABS,ioos:station:wmo:42049:1,2015-10-15T08:30:00Z,28.3507,-96.0058,2.0,30.0782,11111222 
TABS,ioos:station:wmo:42049:1,2015-10-15T09:00:00Z,28.3507,-96.0058,2.0,30.0968,11111222 
TABS,ioos:station:wmo:42049:1,2015-10-15T13:00:00Z,28.3507,-96.0058,2.0,29.3952,11111222 
TABS,ioos:station:wmo:42049:1,2015-10-15T16:00:00Z,28.3507,-96.0058,2.0,28.312,11111222 
TABS,ioos:station:wmo:42049:1,2015-10-20T08:00:00Z,28.3507,-96.0058,2.0,31.4416,11111222 
TABS,ioos:station:wmo:42049:1,2015-10-20T10:00:00Z,28.3507,-96.0058,2.0,31.3278,11111222 
TABS,ioos:station:wmo:42049:1,2015-10-21T06:00:00Z,28.3507,-96.0058,2.0,31.4232,11111222 
TABS,ioos:station:wmo:42049:1,2015-10-21T08:00:00Z,28.3507,-96.0058,2.0,31.33,11111222 
TABS,ioos:station:wmo:42049:1,2015-10-21T09:00:00Z,28.3507,-96.0058,2.0,31.2805,11111222 
TABS,ioos:station:wmo:42049:1,2015-10-21T14:00:00Z,28.3507,-96.0058,2.0,30.8774,11111222 
TABS,ioos:station:wmo:42049:1,2015-10-21T16:00:00Z,28.3507,-96.0058,2.0,30.6429,11111222 
TABS,ioos:station:wmo:42049:1,2015-10-21T17:00:00Z,28.3507,-96.0058,2.0,30.6647,11111222 
TABS,ioos:station:wmo:42049:1,2015-10-21T18:00:00Z,28.3507,-96.0058,2.0,30.7205,11111222 
TABS,ioos:station:wmo:42049:1,2015-10-21T19:00:00Z,28.3507,-96.0058,2.0,31.2846,11111222 
TABS,ioos:station:wmo:42049:1,2015-10-21T21:00:00Z,28.3507,-96.0058,2.0,31.8908,11111222 
TABS,ioos:station:wmo:42049:1,2015-10-21T23:00:00Z,28.3507,-96.0058,2.0,31.7396,11111222 
TABS,ioos:station:wmo:42049:1,2015-10-22T01:00:00Z,28.3507,-96.0058,2.0,31.5015,11111222 
TABS,ioos:station:wmo:42049:1,2015-10-22T02:00:00Z,28.3507,-96.0058,2.0,31.4682,11111222 